Glasgow, KY

3:53 PM CST on February 23, 2017 (GMT -0600)
Glasgow Municipal

Weather History for KGLW - March, 2013

Change the Weather History Date:

Thursday, March 7, 2013

  Actual Average Record
Temperature  
Mean Temperature 33 °F -  
Max Temperature 36 °F 56 °F 78 °F (1974)
Min Temperature 30 °F 32 °F 17 °F (1960)
Degree Days  
Heating Degree Days 32    
Moisture  
Dew Point 27 °F    
Average Humidity 77    
Maximum Humidity 85    
Minimum Humidity 69    
Precipitation  
Precipitation 0.00 in - - ()
Sea Level Pressure  
Sea Level Pressure 30.36 in    
Wind  
Wind Speed 4 mph (NNE)    
Max Wind Speed 8 mph    
Max Gust Speed -    
Visibility 10 miles    
Events      
Averages and records for this station are not official NWS values.
T = Trace of Precipitation, MM = Missing Value Source: NWS Daily Summary

Daily Weather History Graph

Daily Weather History Graph

Search for Another Location

Airport or City:

Trip Planner

Search our weather history database for the weather conditions in past years. The results will help you decide how hot, cold, wet, or windy it might be!

Date:

Astronomy

Mar. 07, 2013 Rise Set
Actual Time 6:06 AM CST 5:43 PM CST
Civil Twilight 5:40 AM CST 6:09 PM CST
Nautical Twilight 5:10 AM CST 6:40 PM CST
Astronomical Twilight 4:39 AM CST 7:10 PM CST
Moon 3:00 AM CST (3/7) 1:35 PM CST (3/7)
Length of Visible Light 12h 29m
Length of Day
11h 37m
Waning Crescent, 20% of the Moon is Illuminated
Mar 7
Waning Crescent
Mar 11
New
Mar 19
First Quarter
Mar 27
Full
Apr 2
Last Quarter

Hourly Weather History & Observations

Time (CST) Temp. Windchill Dew Point Humidity Pressure Visibility Wind Dir Wind Speed Gust Speed Precip Events Conditions
12:15 AM 30.6 °F 27.1 °F 26.4 °F 85% 30.30 in 10.0 mi NNW 3.5 mph - N/A   Overcast
12:35 AM 30.4 °F 22.9 °F 26.2 °F 85% 30.30 in 10.0 mi North 8.1 mph - N/A   Overcast
1:15 AM 30.2 °F 24.3 °F 25.5 °F 83% 30.31 in 10.0 mi North 5.8 mph - N/A   Overcast
1:35 AM 30.2 °F 25.4 °F 25.7 °F 83% 30.31 in 10.0 mi NNW 4.6 mph - N/A   Overcast
1:55 AM 30.2 °F - 25.9 °F 84% 30.31 in 10.0 mi Calm Calm - N/A   Overcast
2:15 AM 30.2 °F 25.4 °F 26.1 °F 85% 30.31 in 10.0 mi NNW 4.6 mph - N/A   Overcast
2:35 AM 30.2 °F 25.4 °F 26.1 °F 85% 30.31 in 10.0 mi NNW 4.6 mph - N/A   Overcast
2:55 AM 30.4 °F 25.6 °F 25.9 °F 83% 30.32 in 10.0 mi North 4.6 mph - N/A   Overcast
3:15 AM 30.6 °F 24.7 °F 25.9 °F 83% 30.32 in 10.0 mi NNW 5.8 mph - N/A   Overcast
3:35 AM 30.7 °F 26.0 °F 25.7 °F 82% 30.32 in 10.0 mi North 4.6 mph - N/A   Overcast
3:55 AM 30.7 °F 27.3 °F 26.1 °F 83% 30.32 in 10.0 mi North 3.5 mph - N/A   Overcast
4:15 AM 30.7 °F 26.0 °F 26.1 °F 83% 30.33 in 10.0 mi North 4.6 mph - N/A   Overcast
4:35 AM 30.7 °F 27.3 °F 26.1 °F 83% 30.33 in 10.0 mi North 3.5 mph - N/A   Overcast
4:55 AM 30.9 °F 26.2 °F 26.2 °F 83% 30.33 in 10.0 mi North 4.6 mph - N/A   Overcast
5:15 AM 30.9 °F 24.3 °F 25.9 °F 82% 30.34 in 10.0 mi NNW 6.9 mph - N/A   Overcast
5:35 AM 30.9 °F 27.5 °F 25.7 °F 81% 30.34 in 10.0 mi North 3.5 mph - N/A   Overcast
5:55 AM 31.1 °F 27.7 °F 26.1 °F 82% 30.35 in 10.0 mi North 3.5 mph - N/A   Overcast
6:15 AM 31.1 °F 25.4 °F 26.1 °F 82% 30.36 in 10.0 mi North 5.8 mph - N/A   Overcast
6:35 AM 31.1 °F - 26.1 °F 82% 30.36 in 10.0 mi Calm Calm - N/A   Overcast
6:55 AM 31.1 °F 26.4 °F 26.4 °F 83% 30.37 in 10.0 mi North 4.6 mph - N/A   Overcast
7:15 AM 31.1 °F 27.7 °F 26.4 °F 83% 30.37 in 10.0 mi North 3.5 mph - N/A   Overcast
7:35 AM 31.3 °F - 26.4 °F 82% 30.38 in 10.0 mi Calm Calm - N/A   Overcast
7:55 AM 31.6 °F - 26.2 °F 80% 30.38 in 10.0 mi Calm Calm - N/A   Overcast
8:15 AM 32.0 °F - 26.1 °F 79% 30.39 in 10.0 mi Calm Calm - N/A   Overcast
8:35 AM 32.0 °F - 25.9 °F 78% 30.39 in 10.0 mi Calm Calm - N/A   Overcast
8:55 AM 32.2 °F - 26.2 °F 79% 30.39 in 10.0 mi Calm Calm - N/A   Overcast
9:15 AM 32.4 °F - 26.4 °F 79% 30.38 in 10.0 mi Calm Calm - N/A   Overcast
9:35 AM 33.1 °F - 26.8 °F 78% 30.38 in 10.0 mi Calm Calm - N/A   Overcast
9:55 AM 33.8 °F 30.8 °F 27.3 °F 77% 30.38 in 10.0 mi NE 3.5 mph - N/A   Overcast
10:15 AM 34.0 °F - 27.3 °F 77% 30.38 in 10.0 mi Calm Calm - N/A   Overcast
10:35 AM 34.7 °F 31.8 °F 27.3 °F 74% 30.38 in 10.0 mi NNE 3.5 mph - N/A   Overcast
10:55 AM 35.1 °F 31.0 °F 27.1 °F 73% 30.39 in 10.0 mi NE 4.6 mph - N/A   Overcast
11:15 AM 35.2 °F 32.4 °F 27.1 °F 72% 30.39 in 10.0 mi NE 3.5 mph - N/A   Overcast
11:35 AM 35.8 °F 30.1 °F 27.5 °F 72% 30.38 in 10.0 mi North 6.9 mph - N/A   Overcast
11:55 AM 35.6 °F 31.7 °F 27.5 °F 72% 30.37 in 10.0 mi NNE 4.6 mph - N/A   Overcast
12:35 PM 35.8 °F 30.9 °F 27.3 °F 71% 30.36 in 10.0 mi North 5.8 mph - N/A   Overcast
12:55 PM 36.0 °F 32.1 °F 27.5 °F 71% 30.36 in 10.0 mi North 4.6 mph - N/A   Overcast
1:15 PM 35.8 °F 33.0 °F 27.1 °F 71% 30.36 in 10.0 mi North 3.5 mph - N/A   Overcast
1:35 PM 36.0 °F 33.3 °F 27.5 °F 71% 30.36 in 10.0 mi North 3.5 mph - N/A   Overcast
1:55 PM 36.1 °F 32.3 °F 27.5 °F 71% 30.36 in 10.0 mi ENE 4.6 mph - N/A   Overcast
2:15 PM 36.5 °F - 27.5 °F 70% 30.36 in 10.0 mi Calm Calm - N/A   Overcast
2:35 PM 36.7 °F 32.9 °F 28.0 °F 71% 30.36 in 10.0 mi NE 4.6 mph - N/A   Overcast
2:55 PM 36.9 °F 34.3 °F 27.9 °F 70% 30.36 in 10.0 mi NE 3.5 mph - N/A   Overcast
3:35 PM 36.9 °F - 27.9 °F 70% 30.35 in 10.0 mi Calm Calm - N/A   Overcast
3:55 PM 36.7 °F - 27.5 °F 69% 30.36 in 10.0 mi Calm Calm - N/A   Overcast
4:15 PM 36.5 °F 32.7 °F 27.7 °F 70% 30.35 in 10.0 mi East 4.6 mph - N/A   Overcast
4:35 PM 36.5 °F - 27.9 °F 71% 30.35 in 10.0 mi Calm Calm - N/A   Overcast
4:55 PM 36.1 °F - 27.3 °F 70% 30.36 in 10.0 mi Calm Calm - N/A   Overcast
5:15 PM 36.0 °F 32.1 °F 27.7 °F 72% 30.36 in 10.0 mi NE 4.6 mph - N/A   Overcast
5:35 PM 35.8 °F - 27.9 °F 73% 30.37 in 10.0 mi Calm Calm - N/A   Overcast
5:55 PM 35.4 °F 32.6 °F 27.5 °F 73% 30.37 in 10.0 mi NNE 3.5 mph - N/A   Overcast
7:35 PM 35.1 °F 32.2 °F 27.5 °F 74% 30.38 in 10.0 mi ENE 3.5 mph - N/A   Overcast
7:55 PM 34.9 °F 30.8 °F 27.5 °F 74% 30.37 in 10.0 mi ENE 4.6 mph - N/A   Overcast
8:15 PM 34.7 °F 30.6 °F 27.3 °F 74% 30.37 in 10.0 mi ENE 4.6 mph - N/A   Overcast
8:35 PM 34.7 °F - 27.7 °F 76% 30.38 in 10.0 mi Calm Calm - N/A   Overcast
8:55 PM 34.7 °F - 28.0 °F 77% 30.38 in 10.0 mi Calm Calm - N/A   Overcast
9:15 PM 34.7 °F 30.6 °F 27.7 °F 76% 30.37 in 10.0 mi ENE 4.6 mph - N/A   Overcast
10:15 PM 34.2 °F 29.0 °F 27.7 °F 77% 30.37 in 10.0 mi ENE 5.8 mph - N/A   Overcast
10:35 PM 34.2 °F 27.5 °F 27.5 °F 77% 30.37 in 10.0 mi East 8.1 mph - N/A   Overcast
10:55 PM 34.0 °F 27.2 °F 27.0 °F 75% 30.36 in 10.0 mi ENE 8.1 mph - N/A   Overcast
11:15 PM 33.8 °F 27.0 °F 27.0 °F 76% 30.36 in 10.0 mi East 8.1 mph - N/A   Overcast
11:35 PM 33.6 °F 29.4 °F 27.1 °F 77% 30.36 in 10.0 mi ENE 4.6 mph - N/A   Overcast
11:55 PM 33.4 °F 26.6 °F 27.3 °F 78% 30.36 in 10.0 mi ENE 8.1 mph - N/A   Overcast